Powrót do katalogu

CZ-6A DEB

AktywnyPO
NORAD 61280·DEBRIS·🇨🇳 China

Wystrzelony Aug 6, 2024 z Taiyuan Satellite Launch Center

Loading…

Następne Przeloty (najbliższe 24 godziny)

TLE

ŚwieżeSource: Space-Track

Epoka: Sep 13, 2026, 23:30 UTC

1 61280U 24140SR  26256.97927986  .00001622  00000-0  88255-3 0  9998
2 61280  88.9806 265.0574 0119686 338.1683  21.4423 14.08271632105118

Śledź CZ-6A DEB w czasie rzeczywistym z AllMySat

Download on the App Store